Friday Harbor, WA
on Friday, November 9, 2012

Friday
Previous Day Next Day
Daily Summary
 ActualAverageRecord
Temperature
Mean Temperature °F °F  
Max Temperature 46°F 49°F 60°F (1997)
Min Temperature 37°F 38°F 35°F (1998)
Degree Days
Heating Degree Days 24    
Moisture
Dew Point 28°F   
Average Humidity 61    
Maximum Humidity 87    
Minimum Humidity 42    
Precipitation
Precipitation 0.00 in in in ()
Wind
Wind Speed 4 mph   
Max Wind Speed 12 mph   
Max Gust Speed 16 mph   
Visibility 10 miles   
Events     
Averages and records for this station are not official NWS values.
Key: T is trace of precipitation, MM is missing value
Source: NWS Daily Summary
Seasonal Weather Averages
Time(PST)TemperatureDew PointHumidity Pressure Visibility Wind DirectionWind SpeedGust SpeedPrecipitationEvents Conditions
12:53 AM 41.0°F 30.9°F 67% 29.88 in 10.0 miles Variable 3.5 mph - N/A   Clear
1:53 AM 39.9°F 34.0°F 79% 29.88 in 10.0 miles WNW 3.5 mph - N/A   Clear
2:53 AM 41.0°F 34.0°F 76% 29.88 in 10.0 miles Calm Calm - N/A   Clear
3:53 AM 42.1°F 34.0°F 73% 29.88 in 10.0 miles NNW 5.8 mph - N/A   Scattered Clouds
4:53 AM 39.9°F 33.1°F 77% 29.88 in 10.0 miles Calm Calm - N/A   Clear
5:53 AM 41.0°F 33.1°F 73% 29.89 in 10.0 miles Calm Calm - N/A   Partly Cloudy
6:23 AM 41.0°F 33.8°F 76% 29.90 in 10.0 miles Variable 3.5 mph - N/A   Mostly Cloudy
6:48 AM 37.4°F 33.8°F 87% 29.90 in 10.0 miles West 3.5 mph - N/A   Scattered Clouds
6:53 AM 37.9°F 33.1°F 83% 29.90 in 10.0 miles West 3.5 mph - N/A   Partly Cloudy
7:53 AM 37.9°F 33.1°F 83% 29.92 in 10.0 miles Calm Calm - N/A   Clear
8:53 AM 43.0°F 28.0°F 56% 29.92 in 10.0 miles North 4.6 mph - N/A   Clear
9:53 AM 45.0°F 25.0°F 46% 29.93 in 10.0 miles North 6.9 mph - N/A   Clear
10:53 AM 46.0°F 24.1°F 42% 29.93 in 10.0 miles North 11.5 mph 16.1 mph N/A   Scattered Clouds
11:53 AM 46.0°F 24.1°F 42% 29.92 in 10.0 miles North 10.4 mph - N/A   Clear
12:53 PM 46.0°F 25.0°F 44% 29.91 in 10.0 miles Variable 4.6 mph - N/A   Clear
1:53 PM 46.0°F 25.0°F 44% 29.91 in 10.0 miles NNW 5.8 mph - N/A   Clear
2:53 PM 46.0°F 25.0°F 44% 29.91 in 10.0 miles North 5.8 mph - N/A   Clear
3:53 PM 44.1°F 26.1°F 49% 29.92 in 10.0 miles Calm Calm - N/A   Clear
4:53 PM 39.9°F 27.0°F 60% 29.93 in 10.0 miles Calm Calm - N/A   Clear
5:53 PM 37.9°F 28.0°F 68% 29.94 in 10.0 miles WNW 3.5 mph - N/A   Clear
6:53 PM 41.0°F 24.1°F 51% 29.95 in 10.0 miles North 11.5 mph - N/A   Clear
7:53 PM 41.0°F 21.9°F 47% 29.96 in 10.0 miles North 10.4 mph - N/A   Clear
8:53 PM 37.9°F 23.0°F 55% 29.96 in 10.0 miles North 5.8 mph - N/A   Clear
9:53 PM 37.9°F 23.0°F 55% 29.97 in 10.0 miles North 8.1 mph - N/A   Clear
11:53 PM 37.9°F 19.9°F 48% 29.99 in 10.0 miles Variable 4.6 mph - N/A   Clear
Moon Phase
Nov. 09 Nov. 13 Nov. 20 Nov. 28 Dec. 06
Sunrise:07:11 AM (PST) Moon Rise:01:55 AM (PST)11/9
Sunset:04:39 PM (PST) Moon Set:02:14 PM (PST)11/9

Copyright © 2014 The Weather Underground, Inc.